Simultaneous Nadir Overpasses (SNOs) Predictions

Prediction of SNOs between TERRA and METOP-C Satellite Orbit:

Table of predicted SNOs for the next 14.0 days since TLE Epoch: 1/15/2022
Index Date (TERRA) Time (TERRA) Lat,Lon (TERRA) SZA (TERRA ) Date (METOP-C) Time (METOP-C) Lat,Lon (METOP-C) SZA (METOP-C ) Distance(km) Time Diff (sec)
1 01/17/2022 14:48:22 81.20, 0.85 103.83 01/17/2022 14:47:35 81.20, 0.78 103.81 1.08 47
2 01/17/2022 15:37:48 -81.22, 168.79 76.13 01/17/2022 15:38:14 -81.22, 168.66 76.14 2.19 26
3 01/20/2022 10:22:34 81.20, 67.32 103.23 01/20/2022 10:21:57 81.21, 67.47 103.24 2.64 37
4 01/20/2022 11:12:00 -81.22,-124.72 76.73 01/20/2022 11:12:36 -81.22,-124.58 76.71 2.42 36
5 01/23/2022 05:56:46 81.20, 133.73 102.58 01/23/2022 05:56:20 81.20, 133.74 102.57 0.22 26
6 01/23/2022 06:46:12 -81.23, -58.28 77.39 01/23/2022 06:46:59 -81.22, -58.23 77.37 0.91 47
7 01/26/2022 01:30:58 81.20,-159.91 101.86 01/26/2022 01:30:43 81.20,-160.03 101.85 2.03 15
8 01/26/2022 02:20:24 -81.22, 8.10 78.10 01/26/2022 02:21:22 -81.22, 8.08 78.07 0.30 58
9 01/28/2022 21:05:08 81.21, -93.24 101.16 01/28/2022 21:05:03 81.21, -93.06 101.17 3.06 5



Historial Predications of SNOs between TERRA and METOP-C
